Odessa, TX

9:31 AM CDT on April 23, 2017 (GMT -0500)
Odessa-Schlemeyer

Weather History for KODO - June, 2013

Change the Weather History Date:

Saturday, June 22, 2013

  Actual Average (KMAF) Record (KMAF)
Temperature  
Mean Temperature 86 °F -  
Max Temperature 97 °F 92 °F 107 °F (1951)
Min Temperature 75 °F 67 °F 60 °F (1973)
Cooling Degree Days 20    
Growing Degree Days 36 (Base 50)    
Moisture  
Dew Point 59 °F    
Average Humidity 44    
Maximum Humidity 64    
Minimum Humidity 29    
Precipitation  
Precipitation 0.00 in - - ()
Sea Level Pressure  
Sea Level Pressure 29.80 in    
Wind  
Wind Speed 16 mph (SSE)    
Max Wind Speed 23 mph    
Max Gust Speed 33 mph    
Visibility 10 miles    
Events      
Averages and records for this station are not official NWS values.
T = Trace of Precipitation, MM = Missing Value Source: NWS Daily Summary

Daily Weather History Graph

Daily Weather History Graph

Search for Another Location

Airport or City:

Trip Planner

Search our weather history database for the weather conditions in past years. The results will help you decide how hot, cold, wet, or windy it might be!

Date:

Astronomy

Jun. 22, 2013 Rise Set
Actual Time 6:44 AM CDT 8:58 PM CDT
Civil Twilight 6:16 AM CDT 9:27 PM CDT
Nautical Twilight 5:41 AM CDT 10:01 PM CDT
Astronomical Twilight 5:04 AM CDT 10:38 PM CDT
Moon 8:19 PM CDT (6/22) 5:55 AM CDT (6/22)
Length of Visible Light 15h 10m
Length of Day
14h 14m
Waxing Gibbous, 99% of the Moon is Illuminated
Jun 22
Waxing Gibbous
Jun 23
Full
Jun 29
Last Quarter
Jul 8
New
Jul 15
First Quarter

Hourly Weather History & Observations

Time (CDT) Temp. Heat Index Dew Point Humidity Pressure Visibility Wind Dir Wind Speed Gust Speed Precip Events Conditions
12:53 AM 80.1 °F 80.7 °F 59.0 °F 48% 29.89 in 10.0 mi South 15.0 mph - N/A   Clear
1:53 AM 79.0 °F - 57.0 °F 47% 29.86 in 10.0 mi SSE 11.5 mph - N/A   Clear
2:53 AM 79.0 °F - 55.9 °F 45% 29.82 in 10.0 mi SSE 11.5 mph - N/A   Clear
3:53 AM 78.1 °F - 55.0 °F 45% 29.81 in 10.0 mi SSE 10.4 mph - N/A   Clear
4:53 AM 78.1 °F - 57.0 °F 48% 29.79 in 10.0 mi South 17.3 mph 23.0 mph N/A   Clear
5:53 AM 75.9 °F - 57.9 °F 54% 29.81 in 10.0 mi South 16.1 mph 24.2 mph N/A   Clear
6:53 AM 75.0 °F - 60.1 °F 60% 29.83 in 10.0 mi South 15.0 mph 23.0 mph N/A   Clear
7:53 AM 75.0 °F - 62.1 °F 64% 29.84 in 10.0 mi South 15.0 mph 25.3 mph N/A   Clear
8:53 AM 77.0 °F - 64.0 °F 64% 29.85 in 10.0 mi South 20.7 mph 26.5 mph N/A   Clear
9:53 AM 80.1 °F 81.5 °F 63.0 °F 56% 29.86 in 10.0 mi South 19.6 mph - N/A   Clear
10:53 AM 82.9 °F 84.4 °F 64.0 °F 53% 29.85 in 10.0 mi South 19.6 mph - N/A   Clear
11:53 AM 87.1 °F 87.8 °F 63.0 °F 44% 29.84 in 10.0 mi South 15.0 mph 20.7 mph N/A   Clear
12:53 PM 91.0 °F 91.5 °F 62.1 °F 38% 29.83 in 10.0 mi South 12.7 mph 20.7 mph N/A   Clear
1:53 PM 93.0 °F 93.0 °F 61.0 °F 34% 29.81 in 10.0 mi SSE 17.3 mph 20.7 mph N/A   Clear
2:53 PM 95.0 °F 94.8 °F 60.1 °F 31% 29.78 in 10.0 mi SSE 17.3 mph 24.2 mph N/A   Clear
3:53 PM 95.0 °F 94.4 °F 59.0 °F 30% 29.76 in 10.0 mi South 15.0 mph 21.9 mph N/A   Clear
4:53 PM 96.1 °F 95.6 °F 59.0 °F 29% 29.74 in 10.0 mi SSE 13.8 mph 24.2 mph N/A   Clear
5:53 PM 95.0 °F 94.8 °F 60.1 °F 31% 29.73 in 10.0 mi SE 18.4 mph 28.8 mph N/A   Clear
6:53 PM 93.9 °F 93.2 °F 59.0 °F 31% 29.71 in 10.0 mi SSE 18.4 mph 28.8 mph N/A   Clear
7:53 PM 91.0 °F 90.2 °F 59.0 °F 34% 29.74 in 10.0 mi SSE 21.9 mph 31.1 mph N/A   Clear
8:53 PM 87.1 °F 86.5 °F 59.0 °F 39% 29.76 in 10.0 mi SSE 23.0 mph 32.2 mph N/A   Clear
9:53 PM 84.0 °F 83.3 °F 57.0 °F 40% 29.76 in 10.0 mi SSE 21.9 mph 33.4 mph N/A   Clear
10:53 PM 82.0 °F 82.0 °F 57.9 °F 44% 29.78 in 10.0 mi SSE 20.7 mph 29.9 mph N/A   Clear
11:53 PM 81.0 °F 80.8 °F 55.9 °F 42% 29.78 in 10.0 mi South 17.3 mph 27.6 mph N/A   Clear